User: anonymous   Login
Location: Dresden
(51.0300°N, 13.7800°E)
Time: 05:23:47
(UTC+01:00)
Language:

YUBILEINY - Orbit

View from above orbital plane
View from above orbital plane
View from above satellite
View from above satellite

Ground track
Ground track

The orbit data is extracted from the following two-line orbital elements,

1 32953U 08025A   25347.35441089  .00000120  00000-0  78901-3 0  9993
2 32953  82.5020 111.0406 0018990 359.7462   0.3605 12.43172384796604
Epoch (UTC): 13 December 2025 08:30:21
Eccentricity: 0.0018990
inclination: 82.5020°
perigee height: 1478 km
apogee height: 1508 km
right ascension of ascending node: 111.0406°
argument of perigee: 359.7462°
revolutions per day: 12.43172384
mean anomaly at epoch: 0.3605°
orbit number at epoch: 79660

The dashed part of the orbit path shows where the satellite is in the earth's shadow,  

DLR